TimeCDT,TemperatureF,Dew PointF,Humidity,Sea Level PressureIn,VisibilityMPH,Wind Direction,Wind SpeedMPH,Gust SpeedMPH,PrecipitationIn,Events,Conditions,WindDirDegrees,DateUTC
12:52 AM,45.0,37.9,76,30.05,10.0,WNW,5.8,-,N/A,,Clear,300,2013-11-02 05:52:00
1:52 AM,46.0,37.0,71,30.06,10.0,NW,11.5,-,N/A,,Clear,320,2013-11-02 06:52:00
2:52 AM,45.0,36.0,71,30.07,10.0,NW,6.9,-,N/A,,Clear,310,2013-11-02 07:52:00
3:52 AM,42.1,36.0,79,30.08,10.0,WNW,5.8,-,N/A,,Clear,290,2013-11-02 08:52:00
4:52 AM,42.1,35.1,76,30.11,10.0,WNW,9.2,-,N/A,,Clear,300,2013-11-02 09:52:00
5:52 AM,41.0,35.1,79,30.13,10.0,WNW,6.9,-,N/A,,Clear,290,2013-11-02 10:52:00
6:52 AM,41.0,34.0,76,30.15,10.0,NW,9.2,-,N/A,,Clear,310,2013-11-02 11:52:00
7:52 AM,41.0,34.0,76,30.18,10.0,WNW,10.4,-,N/A,,Clear,300,2013-11-02 12:52:00
8:52 AM,42.1,34.0,73,30.22,10.0,NW,11.5,-,N/A,,Clear,310,2013-11-02 13:52:00
9:52 AM,46.0,35.1,66,30.23,10.0,NNW,10.4,-,N/A,,Clear,330,2013-11-02 14:52:00
10:52 AM,50.0,36.0,59,30.25,10.0,NW,12.7,-,N/A,,Clear,320,2013-11-02 15:52:00
11:52 AM,52.0,35.1,53,30.25,10.0,NNW,13.8,-,N/A,,Clear,330,2013-11-02 16:52:00
12:52 PM,54.0,34.0,47,30.25,10.0,NW,15.0,-,N/A,,Clear,320,2013-11-02 17:52:00
1:52 PM,55.0,34.0,45,30.22,10.0,NW,11.5,-,N/A,,Clear,320,2013-11-02 18:52:00
2:52 PM,55.9,33.1,42,30.21,10.0,NW,10.4,18.4,N/A,,Clear,310,2013-11-02 19:52:00
3:52 PM,57.0,33.1,40,30.20,10.0,NW,9.2,16.1,N/A,,Clear,320,2013-11-02 20:52:00
4:52 PM,57.9,30.9,36,30.20,10.0,NNW,5.8,-,N/A,,Clear,330,2013-11-02 21:52:00
5:52 PM,55.9,33.1,42,30.19,10.0,Calm,Calm,-,N/A,,Clear,0,2013-11-02 22:52:00
6:52 PM,44.1,35.1,71,30.21,10.0,Calm,Calm,-,N/A,,Clear,0,2013-11-02 23:52:00
7:52 PM,42.1,35.1,76,30.21,10.0,Calm,Calm,-,N/A,,Clear,0,2013-11-03 00:52:00
8:52 PM,37.9,34.0,86,30.21,10.0,Calm,Calm,-,N/A,,Clear,0,2013-11-03 01:52:00
9:52 PM,39.9,35.1,83,30.21,10.0,SE,4.6,-,N/A,,Clear,130,2013-11-03 02:52:00
10:52 PM,37.9,34.0,86,30.20,10.0,SSE,3.5,-,N/A,,Clear,150,2013-11-03 03:52:00
11:52 PM,37.0,33.1,86,30.20,10.0,SSE,4.6,-,N/A,,Clear,160,2013-11-03 04:52:00